Location: Unspecified
(0.0000°N, 0.0000°E)
Time: 11:49:49
(UTC+00:00)

TRS 6 - Pass Details

Date: 19 February 2019
Orbit: 3570 x 3718 km, 87.3° (Epoch: 23 March)

Event Time Altitude Azimuth Distance (km) Brightness Sun altitude
Rises 18:56:51 0° 170° (S) 7,701 ? -10.6°
Reaches altitude 10° 19:01:18 10° 166° (SSE) 6,682 ? -11.6°
Maximum altitude 19:20:01 65° 86° (E) 3,902 ? -16.2°
Drops below altitude 10° 19:38:52 10° 8° (N) 6,780 ? -20.8°
Sets 19:43:20 0° 5° (N) 7,817 ? -21.9°
